Home > Time Zones > World Clock > Weather > Norway > Ski > Past weeks

Flag for Norway Weather past 2 weeks in Ski, Norway

50 °F

Sprinkles. Passing clouds.

Feels Like: 42 °F
Forecast: 34 / 46 °F
Wind: 33 mph from Southwest

Location: Oslo / Fornebu

Current Time: Nov 27, 2015 at 1:10:25 AM

Latest Report: Nov 27, 2015 at 12:50 AM

Visibility: N/A

Pressure: 29.36 "Hg

Humidity: 100%

Dew point: 50 °F

Location of SkiLocation

Historic Weather in Ski — Graph


Ski temperature yesterday

Maximum temperature yesterday: 52 °F (at 5:50 PM)
Minimum temperature yesterday: 39 °F (at 2:20 AM)
Average temperature yesterday: 47 °F

Past Weeks' High & Low Weather Summary

High52 °F (Nov 12, 10:50 PM)100% (Nov 16, 7:50 AM)30.01 "Hg (Nov 16, 7:50 AM)
Low32 °F (Nov 21, 2:20 AM)45% (Nov 20, 2:20 AM)28.74 "Hg (Nov 17, 7:50 AM)
Average45 °F75%29.41 "Hg
* Reported Nov 11 11:20 PM — Nov 26 11:50 PM, Ski, Weather by CustomWeather, © 2015

Note: Actual official high and low records may vary slightly from our data, if they occured in-between our weather recording intervals... More about our weather records


Ski weather history for previous 24 hours

Time TempWeatherWind HumidityBarometerVisibility
11:50 PM
Thu, Nov 26
50 °FSprinkles. Passing clouds.36 mph100%29.39 "Hg5 mi
10:50 PM50 °FSprinkles. Low clouds.37 mph100%29.39 "HgN/A
10:20 PM50 °FPassing clouds.39 mph100%29.42 "HgN/A
9:50 PM50 °FSprinkles. Passing clouds.38 mph100%29.42 "HgN/A
9:20 PM50 °FSprinkles. Passing clouds.39 mph100%29.42 "HgN/A
8:50 PM50 °FPassing clouds.39 mph100%29.42 "HgN/A
8:20 PM50 °FLow clouds.41 mph100%29.42 "HgN/A
7:50 PM50 °FLight rain. Passing clouds.41 mph100%29.42 "HgN/A
7:20 PM50 °FLight rain. Low clouds.40 mph100%29.42 "HgN/A
6:50 PM50 °FLight rain. Fog.45 mph100%29.42 "Hg3 mi
6:20 PM50 °FLight rain. Low clouds.48 mph100%29.42 "Hg3 mi
5:50 PM52 °FSprinkles. Fog.50 mph94%29.42 "Hg2 mi
5:20 PM50 °FSprinkles. Low clouds.50 mph100%29.42 "HgN/A
4:50 PM50 °FSprinkles. Low clouds.48 mph100%29.42 "Hg4 mi
4:20 PM50 °FSprinkles. Low clouds.47 mph100%29.42 "Hg5 mi
3:50 PM50 °FSprinkles. Low clouds.48 mph100%29.45 "Hg4 mi
3:20 PM50 °FSprinkles. Low clouds.47 mph100%29.45 "HgN/A
2:50 PM50 °FSprinkles. Fog.47 mph100%29.45 "Hg2 mi
2:20 PM50 °FSprinkles. Fog.45 mph100%29.45 "Hg1 mi
1:50 PM50 °FLow clouds.45 mph100%29.47 "HgN/A
1:20 PM50 °FLow clouds.46 mph100%29.47 "HgN/A
12:50 PM50 °FSprinkles. Low clouds.45 mph94%29.47 "HgN/A
12:20 PM48 °FSprinkles. Fog.44 mph100%29.50 "Hg2 mi
11:50 AM48 °FDrizzle. Low clouds.43 mph94%29.50 "HgN/A
11:20 AM46 °FLight rain. Partly sunny.44 mph100%29.53 "Hg4 mi
10:50 AM46 °FSprinkles. Fog.43 mph93%29.53 "Hg1 mi
10:20 AM46 °FPartly sunny.41 mph93%29.56 "HgN/A
9:50 AM46 °FLight rain. Partly sunny.37 mph87%29.59 "Hg5 mi
9:20 AM46 °FPartly sunny.36 mph76%29.59 "HgN/A
8:50 AM46 °FOvercast.32 mph82%29.62 "HgN/A
8:20 AM46 °FPassing clouds.32 mph82%29.62 "HgN/A
7:50 AM46 °FPassing clouds.31 mph76%29.65 "HgN/A
7:20 AM45 °FPassing clouds.24 mph81%29.65 "HgN/A
6:50 AM43 °FSprinkles. Passing clouds.24 mph81%29.65 "HgN/A
6:20 AM43 °FPartly cloudy.21 mph76%29.68 "HgN/A
5:50 AM43 °FPassing clouds.20 mph76%29.68 "HgN/A
5:20 AM43 °FOvercast.20 mph71%29.71 "HgN/A
4:50 AM43 °FPassing clouds.9 mph71%29.71 "HgN/A
3:50 AM41 °FLight rain. Overcast.16 mph76%29.74 "HgN/A
3:20 AM41 °FPassing clouds.9 mph70%29.74 "HgN/A
2:50 AM41 °FPartly cloudy.9 mph70%29.74 "HgN/A
2:20 AM39 °FSprinkles. Passing clouds.9 mph75%29.74 "HgN/A
1:50 AM43 °FPassing clouds.14 mph57%29.74 "HgN/A
1:20 AM43 °FPassing clouds.18 mph53%29.74 "HgN/A
Weather by CustomWeather, © 2015

See weather overviewHow to use our weather pages